TimeCDT,TemperatureF,Dew PointF,Humidity,Sea Level PressureIn,VisibilityMPH,Wind Direction,Wind SpeedMPH,Gust SpeedMPH,PrecipitationIn,Events,Conditions,WindDirDegrees,DateUTC
12:15 AM,79.0,71.4,78,29.94,10.0,SSE,4.6,-,N/A,,Clear,150,2013-08-30 05:15:00
12:35 AM,79.5,70.0,72,29.94,10.0,South,5.8,-,N/A,,Clear,170,2013-08-30 05:35:00
12:55 AM,79.0,69.8,73,29.94,10.0,SSE,5.8,-,N/A,,Clear,160,2013-08-30 05:55:00
1:15 AM,78.3,70.0,76,29.94,10.0,South,4.6,-,N/A,,Clear,170,2013-08-30 06:15:00
1:35 AM,77.9,70.2,77,29.94,10.0,SSE,3.5,-,N/A,,Clear,150,2013-08-30 06:35:00
1:55 AM,76.8,70.7,81,29.94,10.0,SSE,3.5,-,N/A,,Clear,150,2013-08-30 06:55:00
2:15 AM,75.6,70.7,85,29.94,10.0,South,4.6,-,N/A,,Clear,170,2013-08-30 07:15:00
2:35 AM,75.2,70.5,85,29.94,10.0,South,4.6,-,N/A,,Clear,170,2013-08-30 07:35:00
2:55 AM,75.2,70.3,85,29.94,10.0,South,5.8,-,N/A,,Clear,180,2013-08-30 07:55:00
3:15 AM,75.2,70.3,85,29.94,10.0,South,5.8,-,N/A,,Clear,170,2013-08-30 08:15:00
3:35 AM,75.0,70.2,85,29.94,10.0,South,3.5,-,N/A,,Clear,170,2013-08-30 08:35:00
3:55 AM,74.7,70.0,85,29.94,10.0,Calm,Calm,-,N/A,,Clear,0,2013-08-30 08:55:00
4:15 AM,74.5,70.0,86,29.94,10.0,Calm,Calm,-,N/A,,Clear,0,2013-08-30 09:15:00
4:35 AM,73.6,69.8,88,29.94,10.0,SSE,3.5,-,N/A,,Clear,150,2013-08-30 09:35:00
4:55 AM,73.6,69.8,88,29.93,10.0,Calm,Calm,-,N/A,,Clear,0,2013-08-30 09:55:00
5:15 AM,72.5,69.8,91,29.93,10.0,ESE,3.5,-,N/A,,Clear,110,2013-08-30 10:15:00
5:35 AM,71.6,69.4,93,29.93,10.0,SE,3.5,-,N/A,,Clear,130,2013-08-30 10:35:00
5:55 AM,71.6,69.3,92,29.93,10.0,Calm,Calm,-,N/A,,Clear,0,2013-08-30 10:55:00
6:15 AM,71.2,68.9,92,29.93,10.0,Calm,Calm,-,N/A,,Clear,0,2013-08-30 11:15:00
6:35 AM,71.4,68.9,92,29.93,10.0,Calm,Calm,-,N/A,,Scattered Clouds,0,2013-08-30 11:35:00
6:55 AM,71.8,68.9,91,29.94,10.0,SSE,4.6,-,N/A,,Scattered Clouds,150,2013-08-30 11:55:00
7:15 AM,72.0,68.5,89,29.94,10.0,South,5.8,-,N/A,,Clear,170,2013-08-30 12:15:00
7:35 AM,72.7,68.9,88,29.94,10.0,South,5.8,-,N/A,,Clear,170,2013-08-30 12:35:00
7:55 AM,73.9,68.7,84,29.94,10.0,South,5.8,-,N/A,,Clear,180,2013-08-30 12:55:00
9:15 AM,79.2,69.8,73,29.94,10.0,South,6.9,-,N/A,,Clear,190,2013-08-30 14:15:00
9:35 AM,81.0,70.3,70,29.94,10.0,SSW,10.4,-,N/A,,Clear,200,2013-08-30 14:35:00
9:55 AM,82.8,67.8,60,29.94,10.0,SSW,8.1,-,N/A,,Clear,200,2013-08-30 14:55:00
10:15 AM,84.2,67.6,57,29.94,10.0,South,9.2,-,N/A,,Clear,190,2013-08-30 15:15:00
10:35 AM,85.6,66.9,53,29.94,10.0,SSW,9.2,-,N/A,,Clear,210,2013-08-30 15:35:00
10:55 AM,86.5,67.8,53,29.94,10.0,SSW,8.1,-,N/A,,Clear,210,2013-08-30 15:55:00
11:15 AM,87.4,67.6,52,29.94,10.0,SW,6.9,-,N/A,,Clear,220,2013-08-30 16:15:00
11:35 AM,88.5,68.5,51,29.93,10.0,WSW,6.9,-,N/A,,Clear,240,2013-08-30 16:35:00
11:55 AM,88.9,68.4,51,29.93,10.0,WSW,4.6,-,N/A,,Clear,240,2013-08-30 16:55:00
12:15 PM,89.4,69.4,52,29.93,10.0,West,6.9,-,N/A,,Clear,260,2013-08-30 17:15:00
12:35 PM,91.0,68.7,48,29.92,10.0,WSW,6.9,-,N/A,,Clear,250,2013-08-30 17:35:00
12:55 PM,91.8,68.4,46,29.92,10.0,West,6.9,-,N/A,,Clear,260,2013-08-30 17:55:00
1:15 PM,92.5,68.2,45,29.92,10.0,WSW,6.9,-,N/A,,Clear,240,2013-08-30 18:15:00
1:35 PM,93.4,68.5,44,29.91,10.0,SW,6.9,-,N/A,,Clear,230,2013-08-30 18:35:00
1:55 PM,94.1,67.8,42,29.91,10.0,WSW,6.9,-,N/A,,Clear,250,2013-08-30 18:55:00
2:15 PM,94.8,68.2,42,29.90,10.0,SW,8.1,-,N/A,,Clear,230,2013-08-30 19:15:00
2:35 PM,95.4,68.0,41,29.90,10.0,SW,6.9,-,N/A,,Clear,220,2013-08-30 19:35:00
2:55 PM,96.1,68.4,40,29.90,10.0,SW,6.9,-,N/A,,Clear,230,2013-08-30 19:55:00
3:15 PM,96.1,68.7,41,29.88,10.0,WSW,4.6,-,N/A,,Clear,240,2013-08-30 20:15:00
3:35 PM,96.8,69.8,41,29.88,10.0,West,6.9,-,N/A,,Clear,270,2013-08-30 20:35:00
3:55 PM,97.2,71.1,43,29.87,10.0,West,4.6,-,N/A,,Clear,280,2013-08-30 20:55:00
4:15 PM,97.0,69.8,41,29.87,10.0,West,6.9,-,N/A,,Clear,270,2013-08-30 21:15:00
4:35 PM,96.4,73.2,47,29.86,10.0,North,9.2,-,N/A,,Clear,350,2013-08-30 21:35:00
4:55 PM,95.9,73.4,48,29.86,10.0,North,9.2,-,N/A,,Clear,350,2013-08-30 21:55:00
5:15 PM,95.9,73.2,48,29.86,10.0,North,6.9,-,N/A,,Clear,350,2013-08-30 22:15:00
5:35 PM,95.7,73.6,49,29.85,10.0,NNW,5.8,-,N/A,,Clear,340,2013-08-30 22:35:00
5:55 PM,95.0,73.9,50,29.86,10.0,NNW,4.6,-,N/A,,Clear,340,2013-08-30 22:55:00
6:15 PM,94.3,73.8,51,29.85,10.0,NNW,5.8,-,N/A,,Clear,330,2013-08-30 23:15:00
6:35 PM,94.1,74.3,52,29.85,10.0,NNW,3.5,-,N/A,,Clear,330,2013-08-30 23:35:00
6:55 PM,93.4,74.8,55,29.85,10.0,Calm,Calm,-,N/A,,Clear,0,2013-08-30 23:55:00
7:15 PM,92.3,76.8,60,29.85,7.0,NW,3.5,-,N/A,,Clear,320,2013-08-31 00:15:00
7:35 PM,90.9,75.9,61,29.84,10.0,Calm,Calm,-,N/A,,Clear,0,2013-08-31 00:35:00
7:55 PM,90.5,74.1,58,29.84,10.0,Calm,Calm,-,N/A,,Clear,0,2013-08-31 00:55:00
8:15 PM,87.8,74.3,64,29.84,10.0,Calm,Calm,-,N/A,,Clear,0,2013-08-31 01:15:00
8:35 PM,85.8,75.4,71,29.84,10.0,Calm,Calm,-,N/A,,Clear,0,2013-08-31 01:35:00
8:55 PM,81.5,76.5,85,29.85,7.0,NNE,3.5,-,N/A,,Clear,30,2013-08-31 01:55:00
9:15 PM,82.6,77.5,85,29.86,10.0,NNE,5.8,-,N/A,,Clear,30,2013-08-31 02:15:00
9:35 PM,82.6,78.4,87,29.86,10.0,NNE,8.1,-,N/A,,Clear,30,2013-08-31 02:35:00
9:55 PM,81.7,78.8,91,29.87,10.0,NNE,6.9,-,N/A,,Clear,30,2013-08-31 02:55:00
10:15 PM,81.1,78.8,93,29.87,10.0,NNE,6.9,-,N/A,,Clear,30,2013-08-31 03:15:00
10:35 PM,81.0,78.4,92,29.88,10.0,NE,5.8,-,N/A,,Clear,40,2013-08-31 03:35:00
10:55 PM,80.2,78.3,94,29.88,10.0,NNE,5.8,-,N/A,,Clear,30,2013-08-31 03:55:00
11:15 PM,79.9,78.1,94,29.88,7.0,NNE,6.9,-,N/A,,Clear,30,2013-08-31 04:15:00
11:35 PM,79.9,77.9,94,29.88,7.0,NNE,5.8,-,N/A,,Clear,30,2013-08-31 04:35:00
11:55 PM,79.3,77.5,94,29.88,10.0,NNE,5.8,-,N/A,,Clear,30,2013-08-31 04:55:00